Location: Cul de Sac
(18.0387°N, 63.0654°W)
Time: 12:57:34
(UTC+00:00)

Daily predictions for brighter satellites

Satellite Brightness Start Highest point End
(mag) Time Altitude Azimuth Time Altitude Azimuth Time Altitude Azimuth
IRS-1C Rocket 4.1 21:52:53 10° SSE 21:58:09 88° ENE 22:03:26 10° NNW
Cosmos 1844 Rocket 4.0 21:53:15 10° NNW 21:58:34 46° WSW 22:03:54 10° S
Okean 1-7 3.3 21:57:08 10° SSE 22:01:13 45° E 22:05:20 10° NNE
Okean 1 4.3 22:00:13 10° SSE 22:03:39 28° E 22:07:04 10° NNE
GPS 2-18 Rocket1 3.2 22:00:06 10° WNW 22:03:59 61° N 22:07:45 10° E
Cosmos 614 Rocket 3.9 22:04:21 10° S 22:09:26 70° ESE 22:14:30 10° NNE
Envisat 3.2 22:05:27 10° SSE 22:10:20 49° ENE 22:15:12 10° N
Cosmos 1733 Rocket 3.9 22:13:37 10° NNW 22:17:54 55° W 22:22:13 10° S
Cosmos 2026 Rocket 3.9 22:13:46 10° S 22:19:51 76° E 22:25:54 10° N
Cosmos 407 Rocket 3.5 22:15:20 10° SSW 22:20:27 88° ESE 22:25:38 10° NNE
Cosmos 1140 Rocket 3.5 22:17:29 10° S 22:22:28 56° ESE 22:27:28 10° NNE
GPS 2-05 Rocket1 2.6 22:21:49 10° SW 22:24:31 51° SE 22:26:01 22° ENE
Cosmos 2221 Rocket 4.3 22:20:54 10° SSE 22:24:55 32° E 22:28:54 10° NNE
STARLINK-80 3.3 22:22:19 10° SSW 22:26:05 76° SE 22:29:01 16° NE
Cosmos 1666 2.7 22:24:31 10° N 22:28:09 52° E 22:31:46 10° SSE
FengYun 1-2 T 4.3 22:23:47 10° SSE 22:29:06 53° ENE 22:34:25 10° N
Gbstr 26 Del rocket 4.5 22:26:22 10° SSW 22:33:51 53° SE 22:38:34 19° ENE
Cosmos 1023 Rocket 4.3 22:28:54 10° S 22:33:57 81° ESE 22:39:02 10° NNE
CENTAUR R/B 4.3 22:26:48 10° NW 22:35:00 49° WSW 22:43:08 10° S
Sich 1 Rocket 4.4 22:38:05 19° NE 22:40:04 27° E 22:43:48 10° SE
Lacrosse 5 2.4 22:35:28 10° S 22:40:12 40° ESE 22:42:37 25° ENE
Cosmos 1992 Rocket 3.9 22:35:46 10° N 22:40:58 75° ENE 22:46:11 10° SSE
Cosmos 1943 4.2 22:36:54 10° SSE 22:41:23 24° ESE 22:42:38 22° E
CZ-3B R/B 2.5 22:36:10 10° SW 22:41:30 59° SSE 22:47:24 22° ENE
Geosat 4.0 22:38:01 13° NNE 22:42:23 64° ESE 22:47:20 10° SSW
STARLINK-48 3.3 22:39:07 10° SSW 22:42:59 79° SE 22:44:54 28° NE
Cosmos 1655 Rocket 4.2 22:37:22 10° SSE 22:43:30 52° E 22:49:35 10° NNE
GPS 2-12 Rocket1 3.6 22:42:26 10° W 22:46:46 52° SSW 22:49:56 18° ESE
Cosmos 1782 Rocket 3.7 22:42:39 10° N 22:46:50 48° E 22:51:01 10° SSE
Cosmos 1743 3.3 22:48:40 34° E 22:48:40 34° E 22:52:02 10° SSE
Okean-O 4.1 22:47:00 10° S 22:51:09 40° W 22:55:18 10° NNW
SWIFT 2.3 22:48:03 10° W 22:52:16 70° N 22:53:37 40° ENE
Cosmos 1939 Rocket 4.2 22:48:54 10° SE 22:50:52 23° ESE 22:50:52 23° ESE
USA 267 3.1 22:47:59 10° SE 22:54:29 74° NE 23:01:01 10° NNW
SL-16 R/B 3.8 22:49:45 10° SW 22:54:45 32° WNW 22:59:48 10° N
Meteor 1-19 Rocket 4.1 22:49:44 10° S 22:55:24 87° E 23:00:56 10° N
Cosmos 2278 Rocket 2.3 22:49:49 10° NNW 22:55:28 78° WSW 23:01:05 10° SSE
Okean 3 3.3 22:56:56 10° S 23:01:08 73° E 23:02:52 34° NNE
Cosmos 1603 3.7 22:55:38 10° S 23:01:11 59° ESE 23:03:39 32° NE
ADEOS Rocket 3.0 23:01:16 35° ENE 23:02:54 44° E 23:08:17 10° S
Centaur AC-64 3.6 22:59:45 10° W 23:03:12 64° N 23:07:50 30° ENE
Meteor 2-4 Rocket 3.7 23:00:38 10° S 23:06:30 66° E 23:10:08 24° NNE
YAOGAN 6 4.4 23:04:45 10° SSW 23:07:52 31° W 23:11:01 10° NW
Abrixas rocket 4.4 23:08:03 10° W 23:10:01 16° NW 23:10:20 16° NW
Cosmos 292 Rocket 3.6 23:07:08 10° NNW 23:12:00 83° E 23:16:48 10° SSE
IRIDIUM 104 4.2 23:07:26 10° S 23:12:36 68° E 23:14:39 37° NNE
ERBS 4.4 23:11:25 10° WNW 23:14:18 27° WSW 23:17:13 10° S
CZ-4C R/B 1.6 23:10:19 10° SSW 23:14:53 74° ESE 23:15:29 64° ENE
USA 81 4.3 23:10:20 10° SSE 23:14:54 47° ESE 23:14:54 47° ESE
Fermi 3.8 23:14:07 10° WSW 23:17:57 74° SSW 23:17:57 74° SSW
Delta 128 3.4 23:15:32 10° WSW 23:20:11 81° NNW 23:20:17 80° N
Atlas Centaur 2 3.0 23:12:17 10° WNW 23:20:32 75° NNE 23:24:00 40° E
Cosmos 1674 Rocket 4.5 23:16:31 10° S 23:19:17 35° SSE 23:19:17 35° SSE
IRIDIUM 114 4.2 23:16:30 10° S 23:21:43 88° E 23:23:46 38° N
YAOGAN 1 3.5 23:20:53 10° S 23:25:02 47° W 23:29:11 10° NNW
GOES 2 Rocket 4.1 23:17:04 10° WNW 23:25:30 89° SSW 23:27:35 48° ESE
CZ-4 R/B 3.3 23:22:44 10° SSW 23:26:12 29° W 23:29:38 10° NW
IRIDIUM 103 4.4 23:25:40 10° S 23:30:51 73° W 23:32:54 37° NNW
Meteor 1-13 Rocket 4.1 23:28:53 10° S 23:34:40 90° ENE 23:35:23 70° N
GEOS 3 Rocket 4.0 23:38:57 53° NNW 23:39:46 60° WNW 23:45:00 10° SW
Cosmos 1741 Rocket 4.2 23:35:52 10° SSW 23:40:12 62° S 23:40:12 62° S
Cosmos 2266 Rocket 4.4 23:41:34 10° SSW 23:47:51 62° W 23:50:58 31° NNW
S3M 3.9 23:50:23 80° WNW 23:50:30 80° W 23:56:36 10° S
